{"data":{"norad_id":58195,"intl_designator":"2023-167W","name":"STARLINK-30827","alt_names":[],"object_type":"PAYLOAD","status":"ACTIVE","operator":null,"country":"US","launch_date":"2023-10-30","launch_site_code":"AFETR","launch_vehicle":null,"mission":null,"orbit_class":"UNKNOWN","rcs_meters":null,"size_class":null,"mass_kg":null,"dimensions":null,"purposes":["comms"],"wikipedia_slug":null,"has_3d_model":false,"image_url":null,"decayed_at":null,"tle_current":{"epoch":"2026-05-25T03:39:57.803904Z","epoch_age_seconds":55790,"freshness":"FRESH","line1":"1 58195U 23167W   26145.15275236  .00000742  00000+0  36504-4 0  9990","line2":"2 58195  43.0030  71.1870 0001301 268.9011  91.1692 15.27572577142683","mean_motion":15.27572577,"eccentricity":0.0001301,"inclination_deg":43.003,"raan_deg":71.187,"arg_perigee_deg":268.9011,"mean_anomaly_deg":91.1692,"bstar":3.6504e-5,"rev_number":14268,"period_min":94.267206788172,"perigee_km":482.17868005921,"apogee_km":483.96396646493,"semimajor_km":6861.2083232621,"source":"CELESTRAK","updated_at":"2026-05-25T13:38:18.573160Z"}}}